Flag for Germany

Past Weather in Wiesloch, Baden-Württemberg, Germany — Yesterday and Last 2 Weeks

Now
61 °F

Clear.


Feels Like: 61 °F
Forecast: 75 / 59 °F
Wind: 3 mph from Southeast

Location: Mannheim City

Current Time: Aug 3, 2020 at 11:35:21 pm

Latest Report: Aug 3, 2020 at 10:20 pm


Visibility: 10 mi

Pressure: 29.89 "Hg

Humidity: 94%

Dew Point: 59 °F

Location of WieslochLocation

Past Weather in Wiesloch — Graph

°F

Wiesloch Temperature Yesterday

Maximum temperature yesterday: 81 °F (at 4:50 pm)
Minimum temperature yesterday: 72 °F (at 11:50 am)
Average temperature yesterday: 77 °F

High & Low Weather Summary for the Past Weeks

 TemperatureHumidityPressure
High97 °F (Jul 31, 5:50 pm)94% (Aug 3, 7:20 pm)30.18 "Hg (Aug 3, 7:20 pm)
Low57 °F (Jul 22, 6:20 am)13% (Jul 30, 4:50 pm)29.80 "Hg (Jul 28, 12:20 am)
Average77 °F44%29.99 "Hg
* Reported Jul 20 6:50 am — Aug 3 10:20 pm, Wiesloch. Weather by CustomWeather, © 2020

Note: Actual official high and low records may vary slightly from our data, if they occured in-between our weather recording intervals... More about our weather records

Wiesloch Weather History for the Previous 24 Hours

Scroll right to see more
 ConditionsComfort  
Time TempWeatherWind HumidityBarometerVisibility
10:20 pm
Mon, Aug 3
61 °FClear.3 mph94%29.89 "Hg10 mi
8:50 pm61 °FLight rain. Scattered clouds.5 mph94%29.86 "Hg6 mi
8:20 pm61 °FLight rain. Scattered clouds.8 mph94%29.89 "Hg5 mi
7:50 pm61 °FRain. Partly sunny.9 mph88%29.89 "Hg4 mi
7:20 pm61 °FLight rain. Scattered clouds.10 mph94%29.86 "Hg4 mi
6:50 pm63 °FLight rain. Scattered clouds.3 mph88%29.86 "Hg4 mi
6:20 pm64 °FLight rain. Partly sunny.9 mph83%29.83 "HgN/A
5:50 pm72 °FLight rain. Broken clouds.6 mph53%29.83 "HgN/A
5:20 pm73 °FScattered showers. Clear.6 mph47%29.83 "HgN/A
4:50 pm73 °FPartly sunny.7 mph44%29.83 "HgN/A
4:20 pm75 °FPartly sunny.6 mph41%29.83 "HgN/A
3:20 pm73 °FPartly sunny.7 mph50%29.86 "HgN/A
2:50 pm72 °FPartly sunny.5 mph53%29.86 "HgN/A
2:20 pm72 °FPassing clouds.5 mph53%29.86 "HgN/A
1:50 pm70 °FSunny.2 mph57%29.89 "Hg10 mi
1:20 pm70 °FSunny.No wind64%29.89 "Hg10 mi
12:50 pm68 °FMore clouds than sun.1 mph73%29.89 "HgN/A
12:20 pm66 °FScattered showers. Broken clouds.3 mph78%29.92 "HgN/A
11:20 am68 °FScattered showers. Partly sunny.5 mph64%29.89 "HgN/A
10:50 am68 °FScattered showers. Partly sunny.2 mph64%29.89 "HgN/A
10:20 am68 °FScattered showers. Partly sunny.5 mph64%29.89 "HgN/A
9:50 am68 °FScattered showers. Broken clouds.6 mph64%29.89 "HgN/A
9:20 am68 °FScattered showers. Scattered clouds.8 mph64%29.92 "HgN/A
8:50 am68 °FPassing clouds.8 mph64%29.92 "HgN/A
8:20 am66 °FPassing clouds.7 mph68%29.92 "HgN/A
7:50 am64 °FSunny.8 mph73%29.92 "Hg10 mi
Weather by CustomWeather, © 2020

See weather overview